COSMOS 1275 DEB, 42183

Orbit data source: Space-Track

COSMOS 1275 DEB, 42183 is space debris in LEO originally from a launch on Thu, 04 Jun 1981 UTC launched from the Plesetsk Missile And Space Complex (PKMTR). Debris objects in space refer to the collection of defunct objects orbiting the Earth. Examples of debris include non-operational satellites, rocket bodies, and fragments generated from explosions, collisions, or faulty payload assembly.

Loading next visibility...
COSMOS 1275 DEB details
Identifier
42183, 1981-053SX
Orbit
LEO
Last TLE update2 weeks ago
Origin
Flag of CISGUKOS (CIS)
ManufacturerUnknown
MissionSpacecraft
Bus & MotorUnknown
MassUnknown
Launch date (UTC)
1981-06-04 (44 years ago)
Launch vehicleUnknown
Launch site
Plesetsk Missile And Space Complex (PKMTR)
Object type
Payload
Rocket body
Debris
Shape & HBRUnknown
Radar Cross SectionSmall (<0.1 m²)

Expand to show TLE details & history

TLE from 2 weeks ago
0 COSMOS 1275 DEB
1 42183U 81053SX  24333.59902956  .00003669  00000-0  31461-2 0  9996
2 42183  82.9323 277.3199 0045945 246.8864 236.2554 13.86107058536224
Epoch: 2024-11-28T14:22Z
Definitive object data (Epoch: 2024-11-28T14:22:36.153Z)
Latitude56.71929°
Longitude162.86076°
Altitude970.59 km
Speed7.362 km/s
True Right ascension05h 45m 57s
True Declination56° 33' 57"
Sunlit
Object was in full shadow at TLE epoch
Visualization TLE readout
Latitude11.13545°
Longitude161.10848°
Altitude916.87 km
Speed7.408 km/s
Apparent Right ascension02h 48m 39s
Apparent Declination-30° 29' 31"
Sunlit
Object is in full shadow
Visualization observer readout
Local Sidereal Time08:14:01
Azimuth240.99° WSW
Elevation-13.069°
Doppler factor1
Orbital elements
Apogee altitude973.06 km
Perigee altitude905.818 km
Semi-major axis7,317.576 km
Eccentricity0.0045945
Inclination82.9323°
RAAN277.3199°
Arg. of periapsis246.8864°
True anomaly235.81901°
Mean anomaly236.2554°
Eccentric anomaly236.03706°
Mean motion3.46731 °/min
BSTAR0.0031461
Orbital period103.83 mins
Loading maneuver chart data...
Loading historical data...
Loading historical data...
Loading historical data...
Loading historical data...
Loading historical data...
Loading historical data...
Loading historical data...

COSMOS 1275 DEB Visibility forecast

Observer location: undefined°, undefined

Span
Click to sort rows by Start time (UTC) header in descending order
Start Az.
Max El. time (UTC)
Max El. Az.
Max El.
End time (UTC)
End Az.
10 mins2024-12-13 19:26:12.916Z181.168° SSW2024-12-13 19:30:12.916Z155.26° SSE44.146°2024-12-13 19:36:12.916Z8.979° NNE
5 mins2024-12-13 21:14:12.916Z273.652° WNW2024-12-13 21:16:12.916Z294.535° NW13.988°2024-12-13 21:19:12.916Z324.163° NNW
10 mins2024-12-14 06:18:12.916Z3.291° NNE2024-12-14 06:23:12.916Z91.25° ESE40.716°2024-12-14 06:28:12.916Z158.608° S
6 mins2024-12-14 08:04:12.916Z309.382° NW2024-12-14 08:07:12.916Z275.076° WNW17.234°2024-12-14 08:10:12.916Z242.002° WSW
|